{"data":{"norad_id":53431,"epoch":"2026-05-25T03:48:48.597120Z","epoch_age_seconds":57441,"freshness":"FRESH","line1":"1 53431U 22097AV  26145.15889580  .00000094  00000+0  24007-4 0  9997","line2":"2 53431  53.2139 120.4459 0001623 119.3038 240.8116 15.08845599210338","mean_motion":15.08845599,"eccentricity":0.0001623,"inclination_deg":53.2139,"raan_deg":120.4459,"arg_perigee_deg":119.3038,"mean_anomaly_deg":240.8116,"bstar":2.4007e-5,"rev_number":21033,"period_min":95.437200529622,"perigee_km":538.60350590439,"apogee_km":540.84904432349,"semimajor_km":6917.8632751139,"source":"CELESTRAK","updated_at":"2026-05-25T13:38:17.405924Z"}}